This demonstration page uses our WeatherBlox Daily Observations layout. Learn more.

Left ArrowRight Arrow

39.08367, -84.50855

Hourly Observations for March 27, 2018

Temp ( °F °C ) Dew Point ( °F °C ) Humidity (%) Winds ( mph kmh ) Pressure ( in mb ) Visibility ( mi km ) Precip ( " mm )
12:53 am 00:53 Cloudy 52 11.1 37 2.8 57 57 S 9 15 30.22 1023 10 16.0934 0 0
1:22 am 01:22 Cloudy 53 11.7 40 4.4 61 61 S 12 19 30.21 1023 10 16.0934 0 0
1:53 am 01:53 Cloudy 53 11.7 42 5.6 66 66 S 10 17 30.19 1022 10 16.0934 0 0
2:53 am 02:53 Cloudy with Light Rain 51 10.6 47 8.3 86 86 S 7 11 30.18 1022 10 16.0934 0.01 0.254
3:53 am 03:53 Cloudy 51 10.6 47 8.3 86 86 VRB 7 11 30.16 1021 10 16.0934 0 0.0254
4:53 am 04:53 Cloudy 51 10.6 47 8.3 86 86 S 6 9 30.15 1021 10 16.0934 0 0
5:53 am 05:53 Cloudy 51 10.6 47 8.3 86 86 S 5 7 30.14 1021 10 16.0934 0 0
6:53 am 06:53 Cloudy 51 10.6 47 8.3 86 86 S 6 9 30.13 1020 10 16.0934 0 0
7:53 am 07:53 Cloudy 51 10.6 47 8.3 86 86 SSW 3 6 30.15 1021 10 16.0934 0 0.0254
8:53 am 08:53 Cloudy with Light Rain 53 11.7 49 9.4 86 86 SSW 12 19 30.16 1021 10 16.0934 0 0.0254
9:53 am 09:53 Cloudy 55 12.8 50 10 83 83 SSW 16 26 30.15 1021 10 16.0934 0 0.0254
10:53 am 10:53 Cloudy 55 12.8 50 10 83 83 SSW 16 26 30.14 1021 10 16.0934 0 0
11:53 am 11:53 Cloudy 55 12.8 50 10 83 83 SSW 13 20 30.14 1021 10 16.0934 0 0
12:53 pm 12:53 Cloudy 56 13.3 51 10.6 84 84 SSW 14 22 30.12 1020 10 16.0934 0 0
1:53 pm 13:53 Cloudy 56 13.3 51 10.6 84 84 SW 12 19 30.11 1020 10 16.0934 0 0
2:53 pm 14:53 Cloudy 57 13.9 52 11.1 83 83 SSW 12 19 30.09 1019 10 16.0934 0 0.0254
3:53 pm 15:53 Cloudy 58 14.4 52 11.1 81 81 SSW 15 24 30.06 1018 10 16.0934 0 0
4:53 pm 16:53 Cloudy 59 15 53 11.7 81 81 SW 12 19 30.05 1018 10 16.0934 0 0
5:40 pm 17:40 Cloudy with Rain 56 13.3 55 12.8 97 97 WSW 6 9 30.06 1018 2 3.21868 0.05 1.27
5:53 pm 17:53 Cloudy with Rain 56 13.3 55 12.8 97 97 WSW 6 9 30.06 1018 2 3.21868 0.11 2.794
6:25 pm 18:25 Cloudy with Rain 55 12.8 55 12.8 100 100 SSW 3 6 30.06 1018 4 6.43736 0.1 2.54
6:53 pm 18:53 Cloudy with Rain 55 12.8 55 12.8 100 100 SSW 3 6 30.06 1018 3 4.82802 0.14 3.556
7:53 pm 19:53 Cloudy with Light Rain 55 12.8 55 12.8 100 100 Calm 30.05 1018 3 4.82802 0.09 2.286
8:53 pm 20:53 Cloudy with Light Rain 53 11.7 53 11.7 100 100 NNE 3 6 30.04 1017 0.5 0.80467 0.05 1.27
9:13 pm 21:13 Cloudy with Light Rain 53 11.7 53 11.7 100 100 Calm 30.06 1018 1.25 2.011675 0.01 0.254
9:19 pm 21:19 Cloudy with Light Rain 53 11.7 53 11.7 100 100 Calm 30.06 1018 0.75 1.207005 0.01 0.254
9:26 pm 21:26 Cloudy with Light Rain 53 11.7 53 11.7 100 100 Calm 30.06 1018 0.5 0.80467 0.01 0.254
9:40 pm 21:40 Cloudy with Fog 53 11.7 53 11.7 100 100 Calm 30.06 1018 0.25 0.402335 0.01 0.254
9:53 pm 21:53 Cloudy with Fog 54 12.2 54 12.2 100 100 Calm 30.04 1017 0.25 0.402335 0.01 0.254
10:05 pm 22:05 Cloudy with Fog 53 11.7 53 11.7 100 100 Calm 30.06 1018 0.25 0.402335 0 0
10:32 pm 22:32 Cloudy with Light Rain 53 11.7 53 11.7 100 100 Calm 30.06 1018 0.25 0.402335 0.01 0.254
10:35 pm 22:35 Cloudy with Light Rain 53 11.7 53 11.7 100 100 Calm 30.06 1018 0.5 0.80467 0.01 0.254
10:53 pm 22:53 Cloudy with Light Rain 53 11.7 53 11.7 100 100 Calm 30.05 1018 0.75 1.207005 0.01 0.254
11:01 pm 23:01 Cloudy with Light Rain 52 11.1 52 11.1 100 100 Calm 30.06 1018 0.5 0.80467 0 0.0254
11:20 pm 23:20 Cloudy with Light Rain 53 11.7 53 11.7 100 100 SW 3 6 30.06 1018 0.5 0.80467 0 0.0254
11:53 pm 23:53 Mostly Cloudy with Light Rain 53 11.7 53 11.7 100 100 Calm 30.05 1018 0.75 1.207005 0.02 0.508

Powered by AerisWeather